Regional Weather Roundup
Issued by NWS

Home | Current Version | Previous Version | Graphics & Text | Print | Product List | Glossary On
Versions: 1 2 3 4 5 6 7 8 9 10 11 12 13 14 15 16 17 18 19 20 21 22 23 24 25 26 27
000
ASUS45 KGTF 041910
RWRMT
MONTANA HOURLY WEATHER ROUNDUP
NATIONAL WEATHER SERVICE GREAT FALLS MT
100 PM MDT MON MAY 04 2015

NOTE: "FAIR" INDICATES FEW OR NO CLOUDS BELOW 12000 FEET WITH NO
SIGNIFICANT WEATHER AND/OR OBSTRUCTIONS TO VISIBILITY.

MTZ001>007-043-042000-
WEST OF THE DIVIDE

CITY           SKY/WX    TMP DP  RH WIND       PRES   REMARKS
KALISPELL      CLEAR     64  27  24 SE5       29.90F
MISSOULA       SUNNY     65  27  23 CALM      29.91F
BUTTE          SUNNY     66  23  19 VRB5      29.96F
DEER LODGE       N/A     68  32  26 N7        29.95F
EUREKA           N/A     61  27  27 CALM      29.89F
HAMILTON         N/A     66  34  30 N2        29.90F
LIBBY            N/A     64  30  27 CALM      29.88F
$$

MTZ008-052>055-042000-
SOUTHWEST MONTANA

CITY           SKY/WX    TMP DP  RH WIND       PRES   REMARKS
BOZEMAN        MOSUNNY   67  40  37 CALM      29.94F
DILLON         SUNNY     69  29  22 S10G21    29.94F
$$

MTZ009-010-012-014-046-048-049-054-042000-
EAST SLOPES AND CENTRAL MONTANA

CITY           SKY/WX    TMP DP  RH WIND       PRES   REMARKS
CUT BANK       SUNNY     62  31  31 VRB3      29.90F
GREAT FALLS    SUNNY     68  37  32 VRB3      29.89F
MALMSTROM AFB  SUNNY     66  38  35 S5        29.90F
HELENA         SUNNY     69  37  30 VRB7      29.92F
$$

MTZ011-013-016-021-045-047-050-051-042000-
NORTH CENTRAL MONTANA

CITY           SKY/WX    TMP DP  RH WIND       PRES   REMARKS
HAVRE          SUNNY     71  39  31 W5        29.87F
LEWISTOWN      SUNNY     71  39  31 CALM      29.92F
CHINOOK          N/A     72  41  33 E15G25    29.88F
FORT BENTON      N/A     70  41  35 SE8       29.89F
$$

MTZ017>020-022>042-056>058-061-062-042000-
EASTERN PLAINS

CITY           SKY/WX    TMP DP  RH WIND       PRES   REMARKS
BAKER          CLOUDY    60  43  53 SE28G36   30.12F
BILLINGS       MOSUNNY   67  42  40 E10G16    29.96F
GLASGOW        SUNNY     70  39  32 SE16G24   29.99F
JORDAN           N/A     71  42  35 SE22      29.97F
LIVINGSTON     MOSUNNY   68  38  33 SE13G22   29.95F
MILES CITY     SUNNY     70  44  39 SE23G30   30.01F
SIDNEY         SUNNY     70  36  28 SE21      30.08F
WOLF POINT     SUNNY     72  39  30 S12G21    30.02F
BIG TIMBER       N/A     63  37  39 S5        29.99S
FORSYTH          N/A     70  43  37 E13G23    29.97F
PLENTYWOOD       N/A     66  28  24 SE17G25   30.07F
POPLAR           N/A     70  36  28 SE20G26   30.04F
$$

REGIONAL REPORTS...DAKOTAS

CITY           SKY/WX    TMP DP  RH WIND       PRES   REMARKS
WILLISTON      SUNNY     71  26  18 S13G22    30.09F
MINOT          SUNNY     66  22  18 S8        30.16F
DICKINSON      SUNNY     64  32  30 S24G31    30.14F
BEACH          FAIR      63  41  45 S17G30    30.12F
CROSBY         FAIR      66  27  22 S9        30.11F
WATFORD CITY   FAIR      68  28  22 S20G26    30.10F
BISMARCK       SUNNY     67  24  19 SE8G18    30.20F
GRAND FORKS    PTSUNNY   65  26  23 CALM      30.21F
FARGO          PTSUNNY   66  29  24 SW8       30.21F
BUFFALO SD       N/A     50  39  66 S24G35    30.11F
RAPID CITY     CLOUDY    50  39  66 SE5       30.21F
$$

REGIONAL REPORTS...WYOMING/IDAHO/WASHINGTON

CITY           SKY/WX    TMP DP  RH WIND       PRES   REMARKS
GILLETTE       SUNNY     60  42  51 SE28G35   30.07S
SHERIDAN       MOSUNNY   67  42  40 E5        29.99F
BUFFALO WY     MOSUNNY   64  46  52 SE13      30.05F
CODY           MOSUNNY   64  39  39 SW3       29.98F
YELLOWSTONE LA   N/A     51  34  52 E5        30.11F
IDAHO FALLS    MOSUNNY   70  40  33 NW3       29.96F
SALMON           N/A     66  37  34 NW5       29.91F
BOISE          SUNNY     76  38  25 SE8G17    29.85F
SPOKANE        SUNNY     68  28  22 CALM      29.86F
$$

REGIONAL REPORTS...ALBERTA

CITY           SKY/WX    TMP DP  RH WIND       PRES   REMARKS
EDMONTON       MOSUNNY   57  28  33 SE18G25   29.94F
CALGARY        CLOUDY    64  18  16 VRB2      29.88F
LETHBRIDGE     SUNNY     63  28  27 E5        29.88F
MEDICINE HAT   MOSUNNY   70  37  30 SW7       29.88F
$$

REGIONAL REPORTS...SASKATCHEWAN

CITY           SKY/WX    TMP DP  RH WIND       PRES   REMARKS
SWIFT CURRENT  MOSUNNY   66  30  26 S20G35    29.96F
REGINA         MOSUNNY   66  23  19 SE8G18    30.09F
SASKATOON      PTSUNNY   61  25  25 VRB8G17   30.08F
$$



USA.gov is the U.S. government's official web portal to all federal, state and local government web resources and services.